Theta_e
305 305 305 308 312 313 322 327 327 318 315 315 310 308 303 302 300 299 298 297 295 295 294 293 292 291 290 288 289 289 288 288 289 288 288 289 290 290 289 289 288 288 289
301 304 305 307 311 312 319 323 318 315 315 315 308 304 302 298 297 297 296 294 293 293 293 291 290 289 288 287 287 287 286 286 288 285 285 283 285 287 288 287 288 285 288
301 302 303 306 310 310 316 315 313 314 312 305 302 299 298 296 295 293 291 292 292 292 291 290 289 288 288 286 286 286 285 284 285 287 283 280 279 283 286 286 286 285 286
301 302 303 306 309 310 312 310 310 311 307 306 301 299 297 295 292 290 289 290 290 290 290 289 288 287 287 285 286 286 284 284 283 285 287 284 283 280 279 283 285 284 285
303 302 304 308 310 311 308 309 310 309 305 304 303 299 296 294 290 289 288 288 288 289 289 288 287 286 286 285 284 283 283 284 282 283 283 282 282 282 280 278 280 283 284
301 303 305 309 308 308 307 308 309 305 303 300 300 298 295 291 289 287 287 287 287 287 287 287 285 285 285 284 284 283 282 282 282 281 281 281 280 280 278 277 279 279 281
300 303 305 308 307 307 307 308 307 303 301 300 297 297 294 291 289 288 287 286 286 285 285 285 284 284 284 284 283 282 282 282 281 280 280 281 281 281 281 279 279 278 280
299 303 306 309 308 308 306 307 305 300 298 298 295 294 292 291 289 288 287 286 285 285 284 283 283 283 283 283 282 282 282 282 281 280 280 281 281 281 281 280 279 277 277
300 303 306 308 307 306 306 304 302 299 297 295 293 290 289 289 288 286 285 285 284 285 283 283 282 282 282 282 281 281 281 280 280 281 280 280 281 281 281 281 280 278 275
300 303 305 304 304 304 300 300 299 297 292 290 289 288 286 286 285 284 284 283 283 283 282 282 282 282 282 282 281 280 281 280 281 282 280 280 280 280 281 280 281 280 278
300 303 303 301 298 296 297 294 293 291 288 287 286 286 285 284 283 283 282 282 282 282 282 282 282 281 281 281 280 280 281 280 280 280 280 280 280 280 280 280 280 280 280
300 300 298 296 296 294 293 291 290 288 286 285 285 284 284 283 282 282 282 282 281 282 282 282 281 281 281 280 279 280 280 280 280 280 279 279 282 280 280 279 279 279 280
298 295 296 295 293 292 290 288 287 285 285 285 284 283 283 282 281 281 282 282 281 281 281 281 281 280 281 280 280 280 280 280 280 279 279 279 279 279 279 279 279 280 281
297 296 295 293 292 291 288 286 285 285 284 284 284 282 282 281 281 281 282 282 281 280 280 280 280 280 280 280 280 282 281 280 280 279 279 279 279 279 279 280 280 282 280
297 296 294 292 290 288 286 285 284 284 284 284 283 282 282 282 282 281 281 281 281 280 280 280 279 279 280 282 283 283 281 279 278 278 279 280 282 286 285 283 281 281 280
299 297 295 292 290 287 286 285 284 283 284 284 283 282 282 282 281 281 280 280 280 279 279 278 278 278 280 285 288 287 281 279 279 278 279 279 282 282 287 287 288 287 284
298 296 294 292 289 287 286 284 283 284 283 283 282 282 282 281 280 280 279 279 278 278 277 277 277 276 276 286 287 288 281 279 278 278 279 279 282 283 280 284 287 287 286
298 297 294 290 288 286 284 283 283 283 282 282 282 282 282 280 279 279 278 277 277 276 276 276 276 275 277 285 286 287 280 279 278 278 278 278 279 280 283 284 283 280 278
298 296 293 290 287 285 284 283 282 282 282 281 281 281 280 279 278 277 277 276 276 276 275 275 275 275 276 284 285 285 279 279 279 279 279 279 281 285 287 283 279 278 278
293 290 289 287 285 283 284 282 281 281 280 280 280 280 280 278 277 276 276 276 275 275 275 276 275 278 275 282 285 285 281 278 280 280 280 284 283 286 287 282 279 275 276
288 288 287 285 282 283 283 281 280 280 280 280 279 278 277 277 276 276 275 275 274 274 274 275 274 275 276 277 285 286 282 280 281 280 280 280 285 286 285 284 278 278 282
285 285 283 281 281 282 282 280 279 279 279 279 277 276 277 279 278 276 276 275 274 273 273 274 275 276 276 282 283 285 286 285 281 280 279 280 284 283 283 281 282 283 282
283 284 282 280 280 280 281 279 277 278 277 276 275 276 276 276 277 276 276 275 273 273 273 274 274 276 278 277 283 285 285 285 282 280 282 283 282 281 279 280 282 281 275
282 282 281 279 278 278 278 277 277 277 276 275 275 276 276 275 275 275 276 275 273 273 274 275 275 275 276 277 278 279 280 283 281 282 277 280 279 279 279 277 277 276 276
281 281 280 278 277 277 277 277 277 276 275 274 275 275 275 274 274 274 274 275 275 276 276 276 276 275 276 278 283 282 281 280 281 280 276 274 274 273 274 274 275 275 275
280 279 278 277 276 276 276 276 276 276 275 274 275 275 274 273 274 273 273 280 281 282 282 282 280 279 282 283 283 284 283 283 282 276 273 273 273 272 273 273 273 274 274
Wind_Speed
11 6 5 6 5 5 8 11 14 11 11 9 8 6 6 5 5 5 7 7 7 7 7 5 5 5 6 5 5 3 6 5 6 4 5 3 2 4 2 1 1 3 3
6 6 6 6 7 6 8 10 11 11 9 8 4 5 6 5 5 4 6 6 7 7 6 6 5 6 4 6 6 6 3 3 5 3 1 5 6 4 6 2 1 5 4
11 8 8 9 7 7 8 10 11 12 10 11 10 8 9 6 4 3 4 4 6 7 7 6 6 6 5 5 5 4 6 3 3 6 3 4 3 4 4 4 3 6 4
8 7 8 8 9 8 7 10 12 12 12 12 12 16 8 8 3 4 4 4 6 7 6 6 6 6 4 6 4 4 3 3 3 3 3 0 3 3 6 3 6 2 8
14 12 13 14 7 9 9 10 11 11 12 11 13 10 9 5 4 5 8 6 5 6 6 6 6 6 4 5 6 5 4 2 1 1 2 2 2 1 2 9 5 8 7
12 11 7 10 7 7 9 10 14 11 10 10 11 14 14 12 9 5 5 4 4 4 6 6 6 5 5 5 4 3 3 2 1 0 1 2 1 3 2 5 10 12 6
9 9 13 13 12 13 12 11 13 12 10 11 9 11 13 12 11 8 6 6 3 3 4 4 5 4 4 4 4 3 3 2 1 2 2 1 3 2 3 4 8 10 9
8 12 14 15 15 14 13 13 13 12 9 9 9 8 10 8 6 5 5 4 4 4 4 5 6 5 4 3 3 2 2 1 2 4 3 3 3 2 2 2 7 13 5
9 13 13 12 14 15 15 14 13 10 9 9 9 8 8 9 8 7 6 5 5 4 6 6 5 4 4 3 3 2 4 3 2 4 4 3 4 4 4 3 3 5 11
11 11 11 12 9 10 8 10 12 13 9 9 8 8 8 9 8 7 7 7 5 5 6 6 5 4 3 3 3 3 3 3 3 3 4 4 3 5 4 4 4 5 9
12 12 12 12 12 10 9 10 11 13 11 9 9 11 9 9 8 7 6 6 6 6 6 5 4 3 4 3 3 4 4 5 5 5 5 6 6 4 4 4 5 6 7
8 9 10 12 13 13 11 10 10 12 11 9 10 10 10 9 8 7 7 6 6 5 6 5 4 4 4 4 4 5 5 5 6 7 6 7 7 6 6 4 7 8 10
9 9 12 12 12 11 11 10 10 12 11 11 11 9 9 8 8 7 6 6 6 6 6 5 4 4 4 5 4 4 6 6 6 6 6 7 7 7 6 7 8 9 8
11 10 10 11 11 11 11 10 10 11 11 11 10 9 7 7 7 6 6 6 6 6 5 4 3 4 5 5 5 5 5 5 5 6 6 7 7 9 9 8 8 8 8
10 11 12 11 11 12 10 10 10 11 11 11 9 8 7 7 7 7 6 6 6 5 4 4 4 4 5 4 6 5 4 4 6 6 7 7 11 19 16 10 10 12 11
10 10 12 13 13 13 12 11 11 10 10 10 9 8 7 7 6 6 6 6 5 5 4 4 5 6 4 11 13 11 3 4 6 7 8 7 13 12 21 23 26 22 12
11 13 13 13 12 12 13 12 11 10 10 10 8 7 7 7 6 6 6 5 5 3 3 5 5 5 5 12 15 16 3 5 6 8 8 8 8 15 11 20 25 11 20
12 12 11 12 11 11 10 12 11 10 10 9 8 7 7 7 6 6 5 4 2 3 3 4 4 5 6 14 16 17 4 5 8 9 9 9 11 10 17 15 9 8 7
9 9 10 12 12 12 12 13 10 10 10 8 7 6 7 7 6 6 5 2 3 3 3 3 5 6 6 15 17 15 5 6 9 8 8 9 10 19 27 15 12 12 11
11 13 12 12 13 11 12 13 11 10 9 7 7 6 7 7 6 5 4 2 2 2 3 5 4 8 6 14 17 15 5 6 7 6 5 12 18 26 25 16 12 11 14
12 13 12 12 11 11 13 13 10 9 7 8 8 7 6 7 6 4 2 2 3 4 5 5 5 6 7 8 18 18 8 8 8 8 7 7 23 26 26 24 9 14 17
11 12 14 12 9 10 13 11 10 7 8 9 8 7 6 5 4 5 2 3 4 4 5 5 6 4 6 12 14 18 20 19 9 9 8 10 24 25 23 17 22 24 19
11 11 14 13 8 7 10 13 6 9 9 8 7 6 6 5 4 4 4 3 3 3 4 4 4 5 5 5 16 19 20 19 12 8 17 22 23 21 15 20 22 19 8
12 12 13 12 9 8 10 11 8 8 9 8 7 5 5 4 4 3 2 3 3 4 4 4 5 5 5 5 6 6 7 12 11 14 6 16 17 17 17 13 11 8 8
9 10 11 11 10 10 9 7 7 8 8 7 5 5 4 3 3 3 1 2 3 3 4 4 4 5 6 7 16 15 9 10 13 16 7 8 8 9 9 9 10 9 9
10 11 10 12 9 9 8 6 6 7 7 6 4 3 3 3 2 3 4 6 8 11 12 13 10 6 13 19 19 20 22 21 22 8 7 8 8 9 10 10 11 10 13
Wind_Direction
262 246 234 192 181 147 139 144 143 145 135 133 126 122 114 105 85 84 86 95 96 96 95 89 81 68 69 62 35 30 33 9 347 351 336 332 316 278 311 359 10 6 342
245 239 193 192 183 173 148 142 141 147 139 136 112 118 125 83 85 87 86 92 98 99 95 95 82 76 85 58 45 40 17 11 21 5 295 356 333 347 306 337 300 7 4
228 213 197 206 171 185 157 144 144 147 132 123 110 102 95 92 92 83 87 72 91 91 90 90 93 83 77 72 63 45 47 14 350 30 69 352 308 328 320 331 360 346 350
218 202 187 191 200 170 146 142 146 142 138 142 137 144 145 141 142 133 111 94 86 88 91 92 85 80 78 70 62 56 56 72 27 336 31 184 216 306 320 311 314 344 322
208 197 192 196 171 151 151 150 144 147 146 149 148 139 126 110 114 115 111 101 85 85 88 85 83 80 75 73 65 50 46 59 117 52 337 329 294 264 257 301 304 307 302
204 198 174 138 140 140 144 151 150 146 149 136 142 142 135 135 132 129 118 117 102 87 76 80 83 81 75 67 61 53 46 39 36 290 230 217 261 284 278 285 305 297 294
181 161 159 160 160 163 157 157 154 148 149 139 134 137 139 140 139 144 138 135 120 81 85 85 75 70 71 67 56 42 16 357 321 304 292 232 245 231 245 273 301 303 306
179 176 179 171 166 162 162 156 156 142 140 139 126 118 126 129 120 129 129 116 108 117 113 91 80 74 66 56 45 26 325 313 319 305 272 269 262 238 232 258 309 313 288
183 181 173 173 167 159 167 154 147 136 136 131 123 116 120 123 128 119 108 106 114 118 98 86 83 62 50 37 15 350 329 323 300 287 279 254 265 250 246 247 249 280 308
180 173 164 153 156 147 131 128 137 134 125 117 119 119 118 112 113 110 112 111 106 94 89 83 71 54 33 17 4 337 311 324 306 292 285 273 249 253 250 242 247 245 269
184 169 162 144 129 116 126 121 123 122 114 115 114 115 113 109 103 105 111 110 100 97 91 83 70 39 20 359 350 334 307 325 312 300 290 285 272 254 251 244 247 254 256
137 138 132 128 131 126 125 124 124 119 117 117 113 111 110 108 106 107 108 109 108 95 93 79 60 28 359 350 356 330 319 317 311 302 305 295 299 270 257 256 258 256 259
117 120 133 132 128 122 121 121 124 118 115 114 116 110 111 110 109 111 111 107 105 89 72 65 42 12 351 344 323 317 317 313 306 304 302 294 290 287 274 261 266 266 267
135 137 129 128 128 124 122 121 116 120 119 116 117 116 116 116 117 117 112 104 96 86 68 53 35 5 339 325 321 315 307 316 328 313 299 297 293 286 279 269 269 284 291
150 148 140 135 126 119 117 121 122 122 122 119 118 117 119 118 116 111 104 98 87 81 66 44 16 359 341 336 313 295 305 321 305 297 298 291 296 310 314 309 309 303 295
156 143 139 137 135 135 133 130 126 123 122 121 120 123 121 119 113 109 107 97 82 68 51 21 8 357 339 320 326 328 295 301 304 300 292 277 297 299 312 310 308 306 317
159 156 153 142 139 140 138 135 130 122 116 117 121 125 123 115 111 111 103 87 72 51 33 16 0 331 315 325 329 324 296 302 291 287 289 299 303 313 297 295 299 305 309
154 150 139 127 130 127 118 118 122 118 118 118 121 122 117 110 109 101 93 77 58 37 19 345 335 332 326 330 325 323 320 293 278 278 283 290 297 294 297 308 316 303 278
136 130 127 128 128 127 129 121 111 111 116 121 122 121 116 113 110 98 92 78 51 21 343 321 339 339 307 325 331 328 299 279 279 283 278 286 292 307 315 322 315 311 307
119 121 119 118 116 121 122 117 117 118 120 123 118 111 107 110 108 109 88 57 56 344 343 338 336 315 315 325 327 327 304 288 296 291 280 310 320 316 322 321 324 322 308
99 109 112 113 116 118 116 112 117 118 118 110 103 98 99 103 112 96 81 62 20 11 356 326 311 317 314 310 325 327 326 313 317 322 322 310 312 324 327 325 333 300 313
101 105 105 102 100 111 114 114 109 116 107 104 100 98 100 94 99 96 68 50 27 2 336 327 319 303 296 312 326 331 330 325 330 326 315 305 325 326 328 329 315 324 333
101 104 108 103 80 84 116 112 117 111 107 99 102 104 97 88 79 69 52 37 9 351 321 318 307 310 309 294 317 320 321 331 326 321 314 328 326 329 330 320 325 327 313
100 105 103 98 90 82 86 107 114 109 107 107 108 110 107 87 61 46 39 25 345 333 317 308 307 289 304 300 299 297 322 316 324 317 328 326 329 326 320 320 317 313 312
89 94 101 101 95 97 95 100 112 114 108 108 107 97 91 81 49 23 298 331 287 269 292 284 287 308 315 311 326 325 328 327 330 333 334 322 326 322 319 318 316 316 313
100 94 95 104 102 102 101 103 110 115 117 111 112 117 90 60 46 13 342 338 323 327 329 330 330 320 321 326 327 331 337 337 332 342 324 322 321 316 317 316 315 314 313